Date String (YYYY-MM-DD hh:mm:ss) UTC,Instrument flags,Ambient pressure (hPa),Sample flow (lpm),Bypass flow (lpm),Sample temperature (°C),Ambient temperature (°C),ASC tube jacket temperature (°C),LED temperature (°C),Box temperature (°C),Sample RH (%),Span deviation,Mass concentration (μg/m³),Mass concentration (μg/m³),Mass concentration (μg/m³)
DateTimeUTC,F1_M11,P_M11,Q1_M11,Q2_M11,T1_M11,T2_M11,T3_M11,T4_M11,T5_M11,U1_M11,ZSPAN_M11,X0_M11,X2_M11,X1_M11
2022-08-03 14:00:00,,0828.9,5.00,0.00,29.9,28.2,00.0,38.6,31.6,32.3,0000.0,0010.87,0003.95,0003.44
2022-08-03 14:01:00,,0828.9,4.99,0.00,29.8,27.5,00.0,38.5,31.5,32.6,0000.0,0010.31,0003.90,0003.43
2022-08-03 14:02:00,,0828.9,5.01,0.00,29.7,27.2,00.0,38.5,31.4,32.8,0000.0,0010.38,0003.91,0003.43
2022-08-03 14:03:00,,0828.9,5.00,0.00,29.6,27.2,00.0,38.5,31.3,33.1,0000.0,0010.59,0003.91,0003.43
2022-08-03 14:04:00,,0828.9,4.99,0.00,29.6,27.3,00.0,38.4,31.3,33.4,0000.0,0010.27,0003.94,0003.43
2022-08-03 14:05:00,,0828.9,5.01,0.00,29.6,27.5,00.0,38.4,31.3,33.6,0000.0,0010.04,0003.93,0003.43
2022-08-03 14:06:00,,0828.9,5.00,0.00,29.5,27.7,00.0,38.4,31.4,33.6,0000.0,0010.35,0003.92,0003.42
2022-08-03 14:07:00,,0828.9,5.00,0.00,29.5,27.8,00.0,38.4,31.4,33.9,0000.0,0011.17,0003.90,0003.41
2022-08-03 14:08:00,,0828.9,5.00,0.00,29.6,28.0,00.0,38.4,31.4,34.0,0000.0,0010.86,0003.88,0003.41
2022-08-03 14:09:00,,0828.9,5.00,0.00,29.6,28.1,00.0,38.4,31.5,34.2,0000.0,0010.16,0003.85,0003.40
2022-08-03 14:10:00,,0829.0,5.00,0.00,29.6,28.2,00.0,38.4,31.5,34.1,0000.0,0009.82,0003.86,0003.40
2022-08-03 14:11:00,,0829.0,4.99,0.00,29.6,28.3,00.0,38.4,31.5,34.3,0000.0,0009.43,0003.88,0003.42
2022-08-03 14:12:00,,0829.0,5.00,0.00,29.6,28.4,00.0,38.4,31.6,34.5,0000.0,0009.22,0003.92,0003.44
2022-08-03 14:13:00,,0829.0,5.00,0.00,29.7,28.5,00.0,38.4,31.6,34.6,0000.0,0009.23,0003.96,0003.45
2022-08-03 14:14:00,,0829.1,5.00,0.00,29.7,28.6,00.0,38.5,31.7,34.7,0000.0,0010.14,0003.96,0003.46
2022-08-03 14:15:00,,0829.0,5.00,0.00,29.7,28.7,00.0,38.5,31.7,34.7,0000.0,0010.20,0003.93,0003.46
2022-08-03 14:16:00,,0829.0,5.01,0.00,29.7,28.7,00.0,38.5,31.8,34.6,0000.0,0010.87,0003.93,0003.47
2022-08-03 14:17:00,,0829.0,5.00,0.00,29.8,28.8,00.0,38.5,31.8,34.8,0000.0,0010.74,0003.97,0003.50
2022-08-03 14:18:00,,0829.1,5.00,0.00,29.8,28.6,00.0,38.5,31.7,34.7,0000.0,0009.86,0004.02,0003.52
2022-08-03 14:19:00,,0829.0,5.00,0.00,29.8,27.8,00.0,38.5,31.6,34.8,0000.0,0010.03,0004.04,0003.54
2022-08-03 14:20:00,,0829.0,4.99,0.00,29.7,27.3,00.0,38.5,31.4,35.1,0000.0,0010.17,0004.07,0003.57
2022-08-03 14:21:00,,0829.0,5.01,0.00,29.8,27.2,00.0,38.4,31.4,34.9,0000.0,0010.07,0004.09,0003.58
2022-08-03 14:22:00,,0829.1,5.00,0.00,29.9,27.2,00.0,38.4,31.4,34.7,0000.0,0010.11,0004.09,0003.57
2022-08-03 14:23:00,,0829.1,5.01,0.00,29.9,27.3,00.0,38.4,31.4,34.7,0000.0,0010.48,0004.11,0003.56
2022-08-03 14:24:00,,0829.0,5.00,0.00,29.9,27.5,00.0,38.4,31.4,34.8,0000.0,0010.35,0004.09,0003.56
2022-08-03 14:25:00,,0829.1,4.99,0.00,30.0,27.7,00.0,38.4,31.5,34.8,0000.0,0009.23,0004.09,0003.57
2022-08-03 14:26:00,,0829.1,4.99,0.00,30.0,27.8,00.0,38.4,31.5,34.7,0000.0,0009.18,0004.09,0003.57
2022-08-03 14:27:00,,0829.2,5.01,0.00,30.0,28.0,00.0,38.5,31.5,34.6,0000.0,0008.66,0004.12,0003.57
2022-08-03 14:28:00,,0829.2,5.00,0.00,30.0,28.1,00.0,38.5,31.5,34.5,0000.0,0009.12,0004.10,0003.57
2022-08-03 14:29:00,,0829.3,5.00,0.00,30.0,28.2,00.0,38.5,31.6,34.8,0000.0,0009.90,0004.14,0003.57
2022-08-03 14:30:00,,0829.2,4.99,0.00,30.0,28.3,00.0,38.5,31.6,34.5,0000.0,0009.80,0004.18,0003.57
2022-08-03 14:31:00,,0829.3,5.00,0.00,30.0,28.4,00.0,38.6,31.7,35.0,0000.0,0010.12,0004.25,0003.57
2022-08-03 14:32:00,,0829.3,5.00,0.00,30.1,28.5,00.0,38.6,31.7,34.7,0000.0,0011.00,0004.29,0003.59
2022-08-03 14:33:00,,0829.3,5.00,0.00,30.2,28.6,00.0,38.6,31.8,35.0,0000.0,0012.05,0004.32,0003.59
2022-08-03 14:34:00,,0829.3,5.00,0.00,30.3,28.7,00.0,38.7,31.9,34.3,0000.0,0013.63,0004.30,0003.60
2022-08-03 14:35:00,,0829.3,5.00,0.00,30.4,28.8,00.0,38.7,31.9,34.5,0000.0,0013.85,0004.33,0003.61
2022-08-03 14:36:00,,0829.3,5.00,0.00,30.5,28.8,00.0,38.7,32.0,34.0,0000.0,0014.41,0004.37,0003.62
2022-08-03 14:37:00,,0829.2,5.01,0.00,30.5,28.9,00.0,38.8,32.0,34.0,0000.0,0015.08,0004.44,0003.64
2022-08-03 14:38:00,,0829.3,5.00,0.00,30.5,28.9,00.0,38.8,32.0,34.2,0000.0,0015.29,0004.48,0003.65
2022-08-03 14:39:00,,0829.2,5.00,0.00,30.5,28.6,00.0,38.8,31.9,34.0,0000.0,0014.72,0004.51,0003.66
2022-08-03 14:40:00,,0829.2,5.00,0.00,30.5,27.8,00.0,38.8,31.8,34.2,0000.0,0014.33,0004.48,0003.67
2022-08-03 14:41:00,,0829.2,5.00,0.00,30.4,27.3,00.0,38.8,31.7,34.2,0000.0,0014.56,0004.46,0003.68
2022-08-03 14:42:00,,0829.3,5.01,0.00,30.3,27.2,00.0,38.8,31.5,34.9,0000.0,0014.39,0004.42,0003.66
2022-08-03 14:43:00,,0829.2,5.00,0.00,30.3,27.3,00.0,38.8,31.5,35.2,0000.0,0013.62,0004.39,0003.66
2022-08-03 14:44:00,,0829.2,5.00,0.00,30.4,27.4,00.0,38.8,31.7,34.5,0000.0,0012.60,0004.36,0003.66
2022-08-03 14:45:00,,0829.2,4.99,0.00,30.5,27.6,00.0,38.8,31.7,34.6,0000.0,0010.68,0004.34,0003.66
2022-08-03 14:46:00,,0829.2,5.01,0.00,30.6,27.8,00.0,38.8,31.7,34.4,0000.0,0010.30,0004.34,0003.65
2022-08-03 14:47:00,,0829.2,5.00,0.00,30.6,28.0,00.0,38.8,31.8,34.1,0000.0,0009.84,0004.34,0003.65
2022-08-03 14:48:00,,0829.2,4.99,0.00,30.6,28.1,00.0,38.9,31.7,34.6,0000.0,0009.31,0004.33,0003.64
2022-08-03 14:49:00,,0829.2,4.99,0.00,30.6,28.2,00.0,38.9,31.8,34.5,0000.0,0009.51,0004.27,0003.63
2022-08-03 14:50:00,,0829.2,5.00,0.00,30.6,28.4,00.0,38.9,31.9,34.5,0000.0,0010.00,0004.28,0003.63
2022-08-03 14:51:00,,0829.2,5.00,0.00,30.6,28.5,00.0,39.0,31.9,34.4,0000.0,0011.14,0004.26,0003.62
2022-08-03 14:52:00,,0829.2,4.99,0.00,30.6,28.6,00.0,39.0,31.9,34.9,0000.0,0010.68,0004.25,0003.62
2022-08-03 14:53:00,,0829.2,5.00,0.00,30.6,28.7,00.0,39.0,31.9,35.0,0000.0,0011.13,0004.27,0003.62
2022-08-03 14:54:00,,0829.3,5.00,0.00,30.7,28.7,00.0,39.0,32.1,35.1,0000.0,0011.26,0004.31,0003.62
2022-08-03 14:55:00,,0829.3,5.00,0.00,30.9,28.8,00.0,39.1,32.2,34.9,0000.0,0011.47,0004.37,0003.63
2022-08-03 14:56:00,,0829.4,5.01,0.00,31.1,28.9,00.0,39.1,32.3,34.1,0000.0,0011.77,0004.41,0003.62
2022-08-03 14:57:00,,0829.4,5.00,0.00,31.2,28.7,00.0,39.1,32.2,33.6,0000.0,0012.54,0004.45,0003.61
2022-08-03 14:58:00,,0829.3,5.00,0.00,31.2,28.0,00.0,39.1,32.0,33.8,0000.0,0013.34,0004.47,0003.61
2022-08-03 14:59:00,,0829.4,5.00,0.00,31.2,27.5,00.0,39.1,31.9,33.7,0000.0,0013.32,0004.45,0003.62
